When you browse on this site, cookies collect data to enhance your experience and personalize the content and advertising you see.
Visit our Privacy Policy to learn more. By continuing to use the site, you agree to this use of cookies and data.
  • In Hungary
  • List of Countries
  • For 7 days
  • Water Temperature
  • Satellite Maps
  • Weather Map
  • News
  • Weather Widgets
  • user-avatar
    Login

    Hourly Weather Herāt

    Today, 20 April, Saturday

    Time Temperature Precipitation Wind Pressure Humidity
    00:00 +22°C° 0 mm 3 mps 677 mmHg 36%
    01:00 +22°C° 0 mm 3 mps 677 mmHg 39%
    02:00 +21°C° 0.1 mm 4 mps 677 mmHg 39%
    03:00 +21°C° 0.1 mm 4 mps 677 mmHg 40%
    04:00 +21°C° 0.1 mm 4 mps 677 mmHg 41%
    05:00 +22°C° 0 mm 4 mps 677 mmHg 40%
    06:00 +22°C° 0 mm 4 mps 677 mmHg 39%
    07:00 +22°C° 0 mm 4 mps 677 mmHg 38%
    08:00 +26°C° 0.1 mm 4 mps 677 mmHg 33%
    09:00 +28°C° 0.1 mm 5 mps 677 mmHg 27%
    10:00 +30°C° 0.1 mm 6 mps 678 mmHg 22%
    11:00 +32°C° 0 mm 7 mps 677 mmHg 21%
    12:00 +33°C° 0 mm 8 mps 677 mmHg 19%
    13:00 +34°C° 0 mm 9 mps 677 mmHg 18%
    14:00 +34°C° 0 mm 8 mps 676 mmHg 18%
    15:00 +34°C° 0 mm 8 mps 676 mmHg 18%
    16:00 +33°C° 0 mm 7 mps 676 mmHg 19%
    17:00 +32°C° 0 mm 5 mps 676 mmHg 24%
    18:00 +29°C° 0 mm 4 mps 675 mmHg 29%
    19:00 +28°C° 0 mm 2 mps 675 mmHg 34%
    20:00 +27°C° 0 mm 2 mps 675 mmHg 36%
    21:00 +26°C° 0 mm 2 mps 676 mmHg 38%
    22:00 +25°C° 0 mm 2 mps 676 mmHg 40%
    23:00 +24°C° 0 mm 3 mps 676 mmHg 44%

    Tomorrow, 21 April, Sunday

    Time Temperature Precipitation Wind Pressure Humidity
    00:00 +22°C° 0 mm 4 mps 676 mmHg 48%
    01:00 +21°C° 0 mm 6 mps 676 mmHg 51%
    02:00 +20°C° 0 mm 6 mps 676 mmHg 58%
    03:00 +18°C° 0 mm 7 mps 676 mmHg 64%
    04:00 +16°C° 0 mm 8 mps 676 mmHg 71%
    05:00 +16°C° 0 mm 8 mps 677 mmHg 68%
    06:00 +16°C° 0 mm 8 mps 677 mmHg 66%
    07:00 +16°C° 0 mm 8 mps 678 mmHg 64%
    08:00 +17°C° 0 mm 9 mps 678 mmHg 60%
    09:00 +18°C° 0 mm 9 mps 679 mmHg 56%
    10:00 +19°C° 0 mm 9 mps 679 mmHg 52%
    11:00 +21°C° 0 mm 8 mps 679 mmHg 50%
    12:00 +22°C° 0 mm 8 mps 679 mmHg 48%
    13:00 +23°C° 0 mm 7 mps 679 mmHg 46%
    14:00 +22°C° 0 mm 7 mps 679 mmHg 46%
    15:00 +22°C° 0 mm 7 mps 679 mmHg 47%
    16:00 +21°C° 0 mm 6 mps 679 mmHg 47%
    17:00 +20°C° 0 mm 6 mps 679 mmHg 52%
    18:00 +17°C° 0 mm 5 mps 679 mmHg 56%
    19:00 +16°C° 0 mm 5 mps 679 mmHg 61%
    20:00 +15°C° 0 mm 4 mps 679 mmHg 62%
    21:00 +15°C° 0 mm 4 mps 679 mmHg 64%
    22:00 +14°C° 0 mm 4 mps 680 mmHg 65%
    23:00 +14°C° 0 mm 4 mps 680 mmHg 66%

    Day after tomorrow, 22 April, Monday

    Time Temperature Precipitation Wind Pressure Humidity
    00:00 +14°C° 0 mm 3 mps 679 mmHg 67%
    01:00 +13°C° 0 mm 3 mps 679 mmHg 68%
    02:00 +13°C° 0 mm 3 mps 679 mmHg 68%
    03:00 +13°C° 0 mm 3 mps 679 mmHg 69%
    04:00 +13°C° 0 mm 3 mps 679 mmHg 70%
    05:00 +14°C° 0 mm 3 mps 679 mmHg 66%
    06:00 +14°C° 0 mm 3 mps 679 mmHg 63%
    07:00 +16°C° 0 mm 3 mps 679 mmHg 59%
    08:00 +19°C° 0 mm 2 mps 679 mmHg 50%
    09:00 +21°C° 0 mm 2 mps 680 mmHg 41%
    10:00 +24°C° 0 mm 1 mps 680 mmHg 33%
    11:00 +26°C° 0 mm 2 mps 680 mmHg 30%
    12:00 +27°C° 0 mm 2 mps 680 mmHg 27%
    13:00 +28°C° 0 mm 3 mps 680 mmHg 24%
    14:00 +28°C° 0 mm 3 mps 679 mmHg 25%
    15:00 +29°C° 0 mm 3 mps 679 mmHg 25%
    16:00 +29°C° 0 mm 3 mps 678 mmHg 25%
    17:00 +27°C° 0 mm 4 mps 678 mmHg 32%
    18:00 +26°C° 0 mm 4 mps 678 mmHg 38%
    19:00 +23°C° 0 mm 4 mps 678 mmHg 45%
    20:00 +23°C° 0.1 mm 4 mps 678 mmHg 47%
    21:00 +22°C° 0.1 mm 3 mps 678 mmHg 49%
    22:00 +21°C° 0.1 mm 2 mps 678 mmHg 52%
    23:00 +21°C° 0 mm 2 mps 678 mmHg 52%

    23 April, Tuesday

    Time Temperature Precipitation Wind Pressure Humidity
    00:00 +21°C° 0 mm 2 mps 678 mmHg 53%
    01:00 +22°C° 0 mm 1 mps 677 mmHg 54%
    02:00 +22°C° 0 mm 1 mps 677 mmHg 53%
    03:00 +21°C° 0 mm 1 mps 676 mmHg 53%
    04:00 +21°C° 0 mm 1 mps 676 mmHg 53%
    05:00 +21°C° 0 mm 2 mps 676 mmHg 48%
    06:00 +22°C° 0 mm 3 mps 677 mmHg 43%
    07:00 +24°C° 0 mm 3 mps 677 mmHg 39%
    08:00 +26°C° 0 mm 4 mps 678 mmHg 35%
    09:00 +28°C° 0 mm 5 mps 678 mmHg 31%
    10:00 +30°C° 0 mm 6 mps 678 mmHg 26%
    11:00 +32°C° 0 mm 7 mps 678 mmHg 25%
    12:00 +33°C° 0 mm 8 mps 678 mmHg 24%
    13:00 +34°C° 0 mm 9 mps 677 mmHg 22%
    14:00 +33°C° 0 mm 9 mps 677 mmHg 23%
    15:00 +33°C° 0 mm 8 mps 676 mmHg 25%
    16:00 +32°C° 0 mm 7 mps 676 mmHg 26%
    17:00 +29°C° 1.6 mm 7 mps 676 mmHg 35%
    18:00 +27°C° 1.6 mm 7 mps 676 mmHg 44%
    19:00 +23°C° 1.6 mm 7 mps 676 mmHg 53%
    20:00 +22°C° 1.7 mm 6 mps 676 mmHg 60%
    21:00 +21°C° 1.7 mm 5 mps 676 mmHg 67%
    22:00 +20°C° 1.7 mm 4 mps 676 mmHg 74%
    23:00 +20°C° 0.3 mm 4 mps 676 mmHg 72%

    24 April, Wednesday

    Time Temperature Precipitation Wind Pressure Humidity
    00:00 +20°C° 0.3 mm 4 mps 675 mmHg 71%
    01:00 +20°C° 0.3 mm 4 mps 675 mmHg 69%
    02:00 +17°C° 0.6 mm 5 mps 675 mmHg 71%
    03:00 +16°C° 0.6 mm 5 mps 676 mmHg 73%
    04:00 +15°C° 0.6 mm 6 mps 676 mmHg 76%
    05:00 +14°C° 1.2 mm 5 mps 676 mmHg 77%
    06:00 +14°C° 1.2 mm 5 mps 677 mmHg 78%
    07:00 +13°C° 1.2 mm 4 mps 677 mmHg 79%
    08:00 +13°C° 0.3 mm 5 mps 678 mmHg 76%
    09:00 +11°C° 0.3 mm 6 mps 678 mmHg 74%
    10:00 +11°C° 0.3 mm 7 mps 679 mmHg 72%
    11:00 +11°C° 0 mm 7 mps 679 mmHg 69%
    12:00 +12°C° 0 mm 7 mps 679 mmHg 65%
    13:00 +12°C° 0 mm 7 mps 679 mmHg 62%
    14:00 +12°C° 0 mm 7 mps 679 mmHg 59%
    15:00 +12°C° 0 mm 8 mps 680 mmHg 57%
    16:00 +12°C° 0 mm 8 mps 680 mmHg 55%
    17:00 +11°C° 0 mm 8 mps 680 mmHg 57%
    18:00 +10°C° 0 mm 8 mps 681 mmHg 59%
    19:00 +9°C° 0 mm 8 mps 681 mmHg 61%
    20:00 +8°C° 0 mm 7 mps 682 mmHg 62%
    21:00 +8°C° 0 mm 7 mps 682 mmHg 62%
    22:00 +8°C° 0 mm 6 mps 683 mmHg 63%
    23:00 +7°C° 0 mm 6 mps 683 mmHg 64%

    25 April, Thursday

    Time Temperature Precipitation Wind Pressure Humidity
    00:00 +7°C° 0 mm 6 mps 682 mmHg 66%
    01:00 +7°C° 0 mm 6 mps 682 mmHg 68%
    02:00 +7°C° 0 mm 6 mps 683 mmHg 68%
    03:00 +7°C° 0 mm 5 mps 683 mmHg 69%
    04:00 +6°C° 0 mm 5 mps 683 mmHg 69%
    05:00 +7°C° 0 mm 6 mps 683 mmHg 67%
    06:00 +7°C° 0 mm 6 mps 683 mmHg 65%
    07:00 +7°C° 0 mm 6 mps 684 mmHg 63%
    08:00 +8°C° 0 mm 6 mps 684 mmHg 57%
    09:00 +10°C° 0 mm 6 mps 684 mmHg 50%
    10:00 +12°C° 0 mm 5 mps 684 mmHg 44%
    11:00 +13°C° 0 mm 6 mps 684 mmHg 42%
    12:00 +14°C° 0 mm 6 mps 684 mmHg 40%
    13:00 +15°C° 0 mm 6 mps 683 mmHg 38%
    14:00 +15°C° 0 mm 6 mps 683 mmHg 40%
    15:00 +15°C° 0 mm 6 mps 683 mmHg 41%
    16:00 +15°C° 0 mm 7 mps 683 mmHg 42%
    17:00 +12°C° 0 mm 7 mps 683 mmHg 47%
    18:00 +11°C° 0 mm 7 mps 683 mmHg 51%
    19:00 +10°C° 0 mm 7 mps 683 mmHg 55%
    20:00 +10°C° 0 mm 7 mps 683 mmHg 56%
    21:00 +9°C° 0 mm 7 mps 684 mmHg 56%
    22:00 +9°C° 0 mm 6 mps 684 mmHg 57%
    23:00 +8°C° 0 mm 6 mps 684 mmHg 58%
    Show more